NOAA 17 DEB

Satellite information

Favourite Embed

Satellite Type and Status

DEBRISIN ORBIT

Key statistics

Satellite NOAA 17 DEB at a glance.

Uptime

8415

Days in orbit

Revolutions

≈ 14.2

Per day

Orbit

SSO

Sun Synchronous Orbit

Inclination

98.7

Latest

Satellite identification and parameters

Extended collection of information and parameters for NOAA 17 DEB.

Object identification

Identified? True

Debris? True

Object name: NOAA 17 DEB

International designator: 2002-032BX

Object number (NORAD): 48738

Object ID (CCSDS): 48738

Country: UNITED STATES OF AMERICA (US)

Current information (Y/N): Y

RCS size: SMALL

Orbital parameters

Period: 101.547 minutes

Inclination: 98.731 deg

SMA: 7210.059 km

Apoapsis: 902.514 km

Periapsis: 761.334 km

RAAN: 105.8513 deg

Eccentricy: 0.0097905

Argument of periapsis: 6.9422 deg

Mean anomaly: 353.3084 deg

Mean motion: 14.18059681 rev/day

Mean motion (dot): 0.00002596 rev/day2

B* drag term: 0.0012279 1/REarth

Two-line elements (TLE)

Creation date: July 6, 2025, 4:10 a.m.

Reference frame: TEME

Reference center: EARTH

Epoch: July 5, 2025, 3:06 p.m. UTC

TLE line 0: 0 NOAA 17 DEB

TLE line 1: 1 48738U 02032BX 25186.62976507 .00002596 00000-0 12279-2 0 9996

TLE line 2: 2 48738 98.7310 105.8513 0097905 6.9422 353.3084 14.18059681220425

Live tracking on map

Real-time ground track for satellite NOAA 17 DEB.

In-orbit conjunctions

A list of the most updated potential collisions computed for object NOAA 17 DEB.

Target Orbit TCA Probability of collision Miss distance Type
NOAA 17 SSO 2025-02-26 18:16:53 0.000208103 951.0 (m) PAYLOAD
COSMOS 2406 LEO 2024-09-06 22:33:26 0.0002218045 680.0 (m) PAYLOAD

Associated space launch

NOAA M carried weather imagers and microwave and infrared sounders, as well as a SARSAT search-and-rescue package. It had an on-orbit mass of 1475 kg.

NOAA 17 DEB was lifted into orbit during the mission ‘Titan II SLV | NOAA 17’, on board a Titan II SLV space rocket.

The launch took place on June 24, 2002, 6:23 p.m. from Space Launch Complex 4W.

For more information about the launch, click the button.

Launch to space Titan II SLV | NOAA 17
Titan II SLV | NOAA 17

Agency: N/A

Status: Launch Successful

Launch date: June 24, 2002, 6:23 p.m. UTC

Rocket: Titan II SLV

Launch pad: Space Launch Complex 4W

Location: Vandenberg SFB, CA, USA

...

Latest news about this satellite

There are no fresh news available about this satellite. Check back as we update our databases every day.


Newsletter sign-up

Weekly statistics, charts and insights to help you stay on top of the space industry.